Theta_e
320 320 320 319 319 319 319 319 319 319 319 319 318 319 319 319 320 321 322 322 321 321 322 324 326 328 326 319 322 360 366 363 356 352 346 342 337 337 328 332 332 325 326 328 330 331 330
320 320 320 319 319 319 319 320 319 319 319 319 318 318 318 318 319 320 321 321 320 320 322 324 326 329 319 318 347 360 357 352 350 346 343 344 339 340 334 328 328 327 326 325 329 330 331
320 320 320 319 318 319 320 320 319 319 319 318 318 318 318 318 318 318 318 318 319 320 322 325 328 329 315 320 352 357 353 348 351 348 341 345 344 334 331 323 329 327 322 323 326 328 326
321 320 319 319 319 319 320 319 319 319 319 319 319 319 318 319 318 317 316 316 317 320 323 326 328 323 313 330 357 353 349 345 348 352 344 340 342 336 330 328 327 322 322 317 322 327 325
320 319 321 320 319 319 319 319 319 319 319 320 320 320 320 319 318 316 315 315 318 322 325 327 322 317 314 342 331 343 343 329 338 341 342 340 336 331 323 321 319 320 315 315 317 327 324
319 319 320 319 319 319 319 319 319 320 320 320 320 319 318 317 316 314 313 315 318 321 324 326 320 314 317 318 323 332 339 334 332 334 331 328 325 318 317 318 308 310 314 316 316 321 323
319 319 319 320 320 319 320 320 320 320 320 319 318 317 317 316 315 313 312 315 318 313 314 308 308 311 314 318 318 323 332 328 329 325 320 317 315 312 315 317 316 313 312 313 319 321 321
319 319 319 320 319 321 321 320 320 320 319 318 317 316 316 315 314 314 310 313 311 311 309 313 313 311 313 315 312 315 329 323 322 317 318 317 313 316 316 314 312 311 310 311 319 321 320
319 319 319 319 321 321 320 320 319 319 318 317 316 316 314 314 314 311 309 313 313 313 309 311 313 314 315 316 313 314 324 323 321 317 316 314 314 315 312 310 309 309 310 313 316 319 320
319 320 320 321 321 321 320 319 319 318 317 316 316 316 314 312 310 310 310 314 314 312 305 306 308 312 313 314 311 317 323 322 318 316 314 314 316 312 310 310 310 308 312 317 317 316 311
321 321 320 321 321 320 319 318 318 318 316 316 317 315 313 311 311 310 311 314 312 309 293 304 308 314 310 311 314 313 320 319 316 314 313 311 310 310 311 309 311 307 314 318 317 311 308
322 322 321 321 321 320 319 318 318 317 316 316 315 314 312 310 310 314 314 312 312 302 292 302 308 307 307 309 311 312 315 318 318 314 311 313 313 312 313 311 311 308 308 308 308 307 303
324 322 321 321 320 319 318 318 317 316 315 314 313 311 311 314 311 313 313 312 303 295 304 302 303 305 305 306 308 309 310 310 311 306 307 310 310 311 311 310 309 309 307 303 300 301 301
322 322 322 321 320 319 318 318 317 315 315 313 310 309 311 314 315 313 312 309 296 298 299 305 304 302 303 304 307 307 307 307 307 309 306 305 305 309 310 312 310 309 308 303 297 299 302
321 321 321 321 320 319 319 318 316 315 314 312 309 314 313 315 314 314 310 301 300 301 304 303 305 300 302 303 304 306 307 307 310 310 306 304 305 308 309 310 311 306 305 307 302 299 301
319 321 322 322 320 319 318 317 315 315 313 311 311 310 312 313 315 311 305 300 303 303 306 304 300 302 300 301 302 303 305 308 308 309 314 309 305 307 307 309 307 308 308 303 304 299 298
319 320 320 320 319 319 318 317 315 314 312 310 311 308 311 314 308 307 297 302 305 307 308 304 301 300 302 300 302 303 305 307 308 307 310 308 307 305 305 306 307 304 305 303 305 305 303
317 317 317 318 317 318 317 316 314 312 310 311 310 302 312 307 302 297 298 302 303 306 306 305 304 303 302 303 301 302 304 307 309 308 305 309 308 305 307 308 306 307 307 308 304 302 306
316 315 314 316 316 317 317 315 314 312 310 309 308 306 315 310 298 298 299 300 304 303 306 304 302 304 304 303 300 302 303 308 307 308 308 306 306 302 303 304 305 305 306 307 306 308 306
313 313 313 314 316 316 316 315 313 312 311 312 309 302 309 308 301 302 304 304 300 304 305 307 305 305 303 301 304 303 306 309 306 310 323 312 308 306 302 305 307 304 304 305 308 304 305
311 312 313 314 315 316 316 314 313 311 311 312 311 305 307 303 308 306 306 308 303 302 305 305 304 303 303 300 302 303 306 308 307 315 312 310 304 305 308 308 305 307 306 304 306 308 305
310 310 311 312 312 313 314 312 312 311 310 313 307 306 309 305 305 307 305 308 306 306 308 308 304 306 304 302 304 304 306 309 311 309 307 304 306 305 305 306 304 304 307 306 307 306 309
309 309 310 310 311 311 312 312 312 311 310 307 309 311 309 303 306 307 309 308 308 310 311 312 311 308 308 309 311 311 311 310 310 310 306 305 304 303 302 305 304 301 305 307 308 309 310
309 309 309 310 310 311 312 313 313 312 311 308 307 306 302 300 304 306 309 310 309 310 307 310 311 309 313 316 315 312 310 309 308 309 310 305 305 305 304 304 297 307 310 311 309 310 312
308 309 310 310 310 310 310 311 313 312 312 308 307 304 303 298 305 304 306 309 311 311 309 309 311 315 317 313 307 306 308 309 310 308 309 307 306 302 302 301 303 306 308 309 309 311 315
308 309 309 309 310 311 311 312 311 313 312 308 307 309 305 302 303 308 308 309 306 307 308 309 315 316 312 311 307 304 302 307 306 305 304 305 308 308 302 300 298 309 311 315 314 307 317
308 308 309 309 311 311 312 313 313 313 312 310 306 310 307 301 306 308 305 307 312 310 306 309 309 310 310 307 305 304 303 309 306 307 304 304 305 305 304 303 306 311 316 317 307 310 317
307 307 308 309 310 311 311 313 312 313 314 311 307 310 307 302 304 308 310 308 310 310 305 310 308 308 308 305 305 308 307 310 309 309 309 309 306 304 304 304 303 316 317 312 317 320 321
307 307 308 309 309 309 310 311 312 312 313 313 305 311 311 302 303 310 311 314 313 314 311 311 309 309 310 307 309 309 308 308 308 306 312 309 311 310 309 311 316 319 318 321 320 321 325
Wind_Speed
16 16 16 16 15 16 16 17 16 16 16 17 17 18 18 19 19 18 18 17 15 14 15 17 15 13 3 2 3 6 15 16 9 10 7 5 2 0 6 4 4 1 4 4 3 8 10
16 16 17 16 16 16 17 17 17 17 17 17 18 18 20 20 20 20 19 18 17 14 13 15 14 13 3 3 4 13 15 16 9 10 6 5 1 1 3 3 3 3 8 4 3 9 9
16 16 16 17 16 17 18 17 17 18 18 18 18 19 20 20 21 21 20 20 19 15 12 13 9 3 2 5 4 11 13 7 4 6 3 4 2 5 8 5 2 5 5 3 4 3 3
15 17 17 16 17 16 17 18 17 18 18 18 17 16 18 19 21 22 22 21 19 17 9 6 3 1 6 4 9 10 8 3 4 6 2 8 4 4 4 4 1 2 2 2 3 5 3
15 16 15 16 17 17 18 18 17 17 15 17 17 18 18 21 21 22 23 22 18 9 4 4 4 3 3 3 4 9 9 3 5 3 1 6 4 2 2 2 1 1 2 4 3 8 5
15 16 16 18 17 18 17 17 15 15 17 17 18 19 21 20 21 22 24 19 7 7 3 2 2 3 6 4 5 5 7 5 3 6 3 2 2 2 2 5 4 3 5 4 4 7 6
16 16 16 17 17 18 15 14 17 18 18 19 20 21 21 22 22 21 12 1 2 2 1 5 0 4 2 6 2 8 8 10 5 4 4 4 5 7 7 10 7 8 7 6 2 5 7
15 15 16 15 19 16 17 17 17 18 21 21 20 21 22 22 23 14 4 5 6 2 7 6 10 9 6 3 4 4 12 8 7 6 3 5 9 7 6 8 7 7 4 4 2 3 6
15 16 15 17 15 16 18 19 19 19 21 21 21 22 22 21 20 3 3 8 4 3 3 7 5 6 5 8 5 5 11 7 5 5 4 7 2 4 6 5 7 5 4 6 3 6 1
14 13 13 14 15 16 17 18 20 21 22 21 21 22 20 27 2 4 1 3 7 4 3 5 4 5 6 6 6 7 7 3 3 10 5 7 2 5 7 2 3 3 6 9 12 9 3
10 11 14 14 15 16 17 18 19 20 22 22 18 21 19 8 5 3 3 6 3 3 4 2 3 2 2 9 6 8 2 3 10 8 6 4 4 5 2 3 1 3 2 7 6 4 3
9 10 11 13 15 16 17 19 20 21 23 24 23 16 15 2 2 5 5 5 3 2 8 1 3 5 6 8 6 4 4 3 1 7 3 8 1 5 2 3 3 12 6 6 4 1 4
12 9 10 12 13 16 17 19 21 23 25 26 26 18 6 1 2 6 5 3 3 6 3 2 2 4 5 10 10 6 10 11 11 9 13 6 8 2 3 2 3 3 3 3 4 5 1
14 13 11 11 12 16 18 19 21 22 25 28 27 16 6 4 4 7 2 3 8 2 6 2 1 2 9 9 10 8 10 13 3 5 5 11 11 8 7 8 4 5 6 5 4 3 3
17 17 12 9 10 12 15 18 22 24 27 28 23 2 1 1 4 3 2 10 8 8 2 4 4 4 7 7 5 11 11 11 14 13 8 6 8 1 4 3 3 6 6 1 6 1 3
17 17 16 11 13 16 17 19 20 22 26 27 6 4 3 7 4 2 3 11 5 3 1 2 2 3 5 7 10 11 13 8 11 13 12 6 7 2 3 5 6 3 9 5 1 4 4
16 16 17 16 15 16 18 19 21 25 28 23 3 4 7 4 3 0 7 7 7 5 4 2 1 4 4 4 7 8 8 8 9 12 9 8 5 4 3 7 11 6 6 4 2 2 3
16 16 17 16 16 17 18 19 19 20 26 6 4 3 5 4 1 1 3 3 3 4 3 3 2 4 4 3 4 7 14 11 13 15 13 10 6 10 13 1 2 2 4 9 7 7 0
16 16 17 17 17 16 17 18 19 18 16 5 5 4 2 3 3 2 3 5 6 7 9 5 5 5 1 3 6 5 6 6 12 15 14 10 7 9 6 5 4 7 6 4 4 3 7
17 17 17 17 16 16 17 18 18 18 17 2 3 4 2 2 1 2 5 4 6 4 10 12 10 10 13 14 8 9 6 3 12 12 8 16 10 13 12 5 3 6 7 9 10 6 7
16 17 18 17 16 16 17 18 18 20 20 2 3 3 2 4 1 9 4 5 9 6 5 5 4 14 12 10 9 10 11 12 2 4 6 12 13 11 16 11 7 5 8 14 13 10 11
16 16 17 17 17 18 17 18 20 20 18 1 4 4 3 5 8 7 3 4 8 8 4 8 10 10 5 16 11 4 1 4 3 4 8 5 10 12 18 13 13 13 9 11 10 4 7
15 16 16 16 17 17 16 16 16 17 11 4 3 2 3 4 4 4 3 3 3 6 5 9 11 11 13 21 18 18 13 15 15 3 8 8 8 8 16 7 6 9 14 16 10 7 9
16 16 16 16 16 16 16 14 12 13 10 3 2 2 2 5 6 6 9 11 17 10 7 13 14 13 4 11 9 8 9 13 10 12 7 7 7 2 5 7 13 4 2 14 18 12 15
16 15 16 16 17 16 15 15 14 10 9 3 2 2 2 6 6 13 13 10 12 10 11 14 15 14 12 11 7 8 5 6 6 2 9 5 5 4 5 8 3 5 6 8 10 12 15
17 16 16 17 15 15 14 12 11 10 9 5 5 4 3 4 5 9 7 7 9 6 6 6 11 13 8 5 6 6 8 7 7 5 4 6 2 4 4 6 11 8 7 6 8 12 12
17 18 18 17 17 16 16 15 13 9 8 3 4 4 3 4 9 9 8 8 2 3 5 6 9 8 3 5 7 6 6 4 9 11 7 5 3 10 5 4 6 2 4 6 8 9 1
17 17 17 17 17 17 17 16 15 14 10 2 4 5 4 5 11 13 13 15 11 5 4 7 11 2 4 5 4 3 3 3 3 4 6 7 8 5 3 5 9 2 4 7 4 2 3
17 18 18 18 17 17 18 17 16 15 13 5 3 1 1 5 8 12 17 20 20 18 1 4 7 11 5 5 1 1 2 2 1 5 1 4 1 2 6 1 2 3 8 11 10 8 4
Wind_Direction
30 29 27 25 23 17 14 9 8 6 2 357 352 346 341 339 336 334 330 329 331 326 318 314 318 323 292 272 275 127 138 153 150 159 172 154 166 54 13 342 150 5 56 50 120 140 134
29 26 25 23 21 19 12 7 8 6 2 357 351 345 339 336 333 330 328 324 323 322 313 306 312 318 297 277 96 151 147 160 181 184 181 186 38 22 308 312 285 97 88 48 109 125 130
27 25 23 22 20 17 13 10 8 4 2 357 352 345 340 333 332 329 325 322 318 314 305 294 300 310 266 256 134 152 164 180 184 183 159 220 299 322 337 319 129 135 101 79 97 121 107
25 24 23 20 17 11 9 10 8 4 359 355 348 337 332 332 330 326 322 317 314 308 296 270 256 249 254 15 131 150 171 202 198 213 289 325 227 263 260 316 115 131 105 207 137 158 154
23 23 21 20 17 10 8 7 6 359 348 337 332 330 328 330 328 324 318 312 307 301 283 248 200 231 233 132 183 188 184 176 179 200 353 293 340 308 220 224 189 130 258 218 193 197 153
24 22 18 18 15 11 7 5 350 338 336 336 336 336 335 332 326 325 317 302 287 297 209 214 275 255 170 196 160 169 186 178 155 136 131 185 207 255 151 225 297 293 228 208 224 185 191
23 20 18 14 11 8 356 349 344 341 340 343 343 340 337 331 326 328 332 296 304 165 43 233 126 288 332 314 252 178 169 174 215 210 229 184 230 266 272 230 277 283 245 245 248 181 198
20 18 15 10 6 354 348 344 344 341 344 345 343 340 336 331 326 321 280 78 86 339 306 246 251 271 264 313 311 192 154 170 179 219 182 214 267 246 283 274 225 228 222 208 106 181 218
17 14 10 6 357 348 345 343 343 343 345 344 342 340 337 330 322 304 351 128 75 193 258 289 225 232 222 178 227 233 187 170 168 187 212 252 304 359 256 270 181 192 224 167 138 145 157
13 12 4 355 349 348 346 344 343 342 345 341 336 338 338 329 304 337 306 125 337 202 309 253 224 246 169 169 230 201 204 154 145 218 191 266 232 228 257 77 280 13 216 151 143 166 219
350 347 357 354 347 346 345 344 343 341 337 328 330 335 335 341 312 263 69 327 127 218 285 125 187 35 98 199 145 193 172 145 192 183 186 199 176 228 337 52 309 36 77 119 147 119 210
342 339 341 344 346 345 344 343 341 337 332 328 327 328 332 161 218 265 324 313 217 235 248 315 157 172 156 208 201 114 160 97 63 178 222 255 224 256 211 87 60 153 94 73 84 218 247
335 331 335 342 348 347 344 343 341 337 333 328 326 324 292 240 312 331 307 194 209 223 350 155 217 178 198 187 202 181 175 183 196 202 224 229 237 216 206 183 123 163 158 212 199 192 271
350 341 328 339 345 345 344 344 341 338 334 329 326 322 186 234 308 341 288 165 222 267 256 335 304 156 203 167 208 173 159 193 179 157 193 217 214 187 162 216 199 189 240 254 269 215 110
349 341 333 335 338 347 343 344 340 339 335 333 319 341 257 314 279 211 190 209 208 197 239 313 301 220 201 210 219 197 206 201 195 193 224 182 227 197 201 120 209 144 198 60 119 61 262
348 350 352 353 354 348 349 349 345 341 336 336 329 329 351 335 162 206 188 230 235 255 212 147 271 240 231 198 192 199 196 199 205 196 208 194 230 197 90 133 62 253 134 180 226 193 227
354 8 9 10 0 352 352 350 347 343 340 331 322 330 9 25 245 238 222 224 237 232 281 271 178 298 282 227 221 193 197 201 217 181 197 166 232 152 183 198 192 152 188 81 122 282 220
13 3 3 1 359 353 352 350 348 346 340 18 340 310 9 297 200 77 250 243 227 249 196 277 290 233 262 301 245 223 214 224 175 154 180 193 212 227 242 112 321 223 216 181 218 176 184
8 3 357 359 358 356 354 351 347 347 3 329 346 295 343 301 243 251 291 272 265 226 223 210 233 233 148 315 335 243 223 236 163 166 175 170 211 224 212 167 152 217 185 168 132 138 184
7 1 360 360 358 355 354 353 348 345 351 315 318 324 337 48 15 348 349 286 255 233 250 245 260 273 278 277 251 272 283 261 198 202 174 167 194 215 226 214 162 183 192 187 209 197 180
360 356 360 359 358 360 357 356 352 345 344 286 3 34 26 320 127 325 289 280 280 286 232 219 213 233 228 251 257 242 251 263 196 181 148 192 224 214 235 231 204 255 191 183 204 204 210
358 357 356 355 356 356 358 359 357 349 342 56 350 343 345 284 295 286 218 236 261 267 269 251 234 254 228 241 218 237 239 247 228 147 158 191 215 201 233 225 219 239 238 201 212 184 268
354 355 354 352 349 352 354 356 355 355 356 30 8 334 295 287 298 287 261 272 246 338 245 268 318 296 257 243 255 263 265 271 265 311 179 180 174 170 228 213 176 243 216 199 209 194 218
351 351 351 351 350 348 349 351 356 358 11 351 5 308 287 276 278 273 296 290 289 286 284 288 296 262 265 337 287 252 244 253 237 241 217 171 183 200 212 160 227 251 236 208 208 221 211
349 348 346 346 345 343 343 343 348 350 354 344 310 291 267 273 283 282 271 285 293 287 262 282 290 257 290 300 251 243 200 178 209 141 206 219 153 145 204 203 303 213 182 184 180 230 219
347 346 346 345 336 336 335 341 337 338 337 331 295 251 276 284 248 279 307 295 300 288 285 262 303 300 246 230 217 235 186 171 172 139 75 160 93 245 163 216 224 219 163 186 210 265 185
346 345 342 337 337 338 338 337 333 324 320 319 284 279 278 273 267 267 247 287 257 292 285 295 335 309 279 203 213 229 212 176 160 173 163 153 159 212 180 222 270 262 163 205 212 270 65
343 341 338 336 335 333 329 330 334 336 325 307 280 251 233 257 275 258 256 270 274 282 283 340 313 176 272 226 220 191 231 170 134 129 168 165 162 172 143 201 242 49 148 217 10 300 265
338 340 338 334 331 327 323 323 323 324 323 329 274 287 165 248 269 298 264 254 249 244 133 256 279 304 283 297 247 255 191 199 174 158 65 175 246 164 220 196 20 275 278 292 292 281 259